INTELSAT 20 (IS-20)

Last updated on Thu Oct 30 2025 00:02:49 GMT+0000 (Coordinated Universal Time)

1 38740U 12043A 25302.41327073 -.00000014 00000+0 00000+0 0 9995 2 38740 0.0094 215.5925 0002396 326.5355 73.1582 1.00270653 48434
UTC large
Height (km)
Speed (km/s)
/
Latitude / Longitude
Inclination (degrees)
Orbital Period (minutes)
Azimuth
Elevation
Range (km)
Doppler Factor

Next 0 passes for location: London (51.5072 / 0.1276)

Sorry there are no passes over London.